UAL2248 KPDX-KDEN

Flight info

Callsign UAL2248
Flight time 2h 0m
Altitude 35000
Route WHAMY5 IMB PIH MJANE FLATI5
Aircraft A20N/M-SDE2E3FGHIRWXY/LB1

Departure

Time 2026-05-07 15:31
Airport Portland International Airport (KPDX)

Arrival

Time 2026-05-07 17:31
Airport Denver International Airport (KDEN)
Time Latitude Longitude Altitude Speed Heading
2026-05-07 14:48 45.59009 -122.59106 36 ft 0 kts 208°
2026-05-07 15:21 45.59018 -122.59099 35 ft 4 kts 208°
2026-05-07 15:21 45.59041 -122.59083 36 ft 4 kts 187°
2026-05-07 15:21 45.59065 -122.59089 37 ft 4 kts 134°
2026-05-07 15:21 45.59073 -122.59103 38 ft 1 kts 119°
2026-05-07 15:22 45.59074 -122.59104 38 ft 0 kts 119°
2026-05-07 15:25 45.59072 -122.59100 38 ft 1 kts 118°
2026-05-07 15:25 45.59056 -122.59060 38 ft 8 kts 118°
2026-05-07 15:26 45.59036 -122.58973 40 ft 10 kts 101°
2026-05-07 15:26 45.59030 -122.58865 41 ft 12 kts 89°
2026-05-07 15:26 45.59028 -122.58732 39 ft 15 kts 100°
2026-05-07 15:26 45.58974 -122.58581 38 ft 18 kts 122°
2026-05-07 15:27 45.58909 -122.58416 35 ft 20 kts 119°
2026-05-07 15:27 45.58837 -122.58236 39 ft 21 kts 120°
2026-05-07 15:27 45.58765 -122.58054 43 ft 22 kts 120°
2026-05-07 15:27 45.58692 -122.57861 42 ft 23 kts 118°
2026-05-07 15:28 45.58608 -122.57647 40 ft 26 kts 119°
2026-05-07 15:28 45.58515 -122.57409 35 ft 29 kts 120°
2026-05-07 15:28 45.58430 -122.57189 37 ft 20 kts 117°
2026-05-07 15:28 45.58364 -122.57009 39 ft 21 kts 119°
2026-05-07 15:29 45.58310 -122.56882 41 ft 11 kts 122°
2026-05-07 15:29 45.58274 -122.56766 39 ft 15 kts 88°
2026-05-07 15:29 45.58342 -122.56694 38 ft 13 kts 352°
2026-05-07 15:29 45.58394 -122.56777 39 ft 10 kts 298°
2026-05-07 15:30 45.58399 -122.56789 39 ft 0 kts 297°
2026-05-07 15:30 45.58410 -122.56820 36 ft 23 kts 298°
2026-05-07 15:30 45.58609 -122.57331 37 ft 92 kts 300°
2026-05-07 15:30 45.59011 -122.58362 39 ft 144 kts 298°
2026-05-07 15:31 45.59529 -122.59717 411 ft 155 kts 299°
2026-05-07 15:31 45.60027 -122.61078 1047 ft 156 kts 299°
2026-05-07 15:31 45.60540 -122.62452 1736 ft 157 kts 299°
2026-05-07 15:31 45.61072 -122.63892 2154 ft 173 kts 297°
2026-05-07 15:32 45.61497 -122.65602 2602 ft 192 kts 283°
2026-05-07 15:32 45.61903 -122.67514 3113 ft 211 kts 293°
2026-05-07 15:32 45.62553 -122.69233 3569 ft 230 kts 300°
2026-05-07 15:32 45.63392 -122.71288 4118 ft 249 kts 300°
2026-05-07 15:33 45.64275 -122.73455 4930 ft 258 kts 300°
2026-05-07 15:33 45.65177 -122.75676 5960 ft 257 kts 300°
2026-05-07 15:33 45.66055 -122.77846 6888 ft 260 kts 300°
2026-05-07 15:33 45.66667 -122.79404 7538 ft 262 kts 295°
2026-05-07 15:34 45.67100 -122.81936 8410 ft 268 kts 272°
2026-05-07 15:34 45.66773 -122.84562 9285 ft 275 kts 254°
2026-05-07 15:34 45.66183 -122.87173 10189 ft 279 kts 254°
2026-05-07 15:34 45.65296 -122.89676 11006 ft 286 kts 233°
2026-05-07 15:35 45.63735 -122.91498 11801 ft 298 kts 209°
2026-05-07 15:35 45.62086 -122.92208 12436 ft 308 kts 189°
2026-05-07 15:35 45.59937 -122.91951 13201 ft 320 kts 169°
2026-05-07 15:35 45.57728 -122.91046 13561 ft 341 kts 165°
2026-05-07 15:36 45.55451 -122.89615 13782 ft 368 kts 148°
2026-05-07 15:36 45.53589 -122.87079 14132 ft 385 kts 126°
2026-05-07 15:36 45.52327 -122.83684 14765 ft 390 kts 113°
2026-05-07 15:36 45.51247 -122.80096 15425 ft 394 kts 112°
2026-05-07 15:37 45.50170 -122.76483 16062 ft 399 kts 112°
2026-05-07 15:37 45.49067 -122.72837 16711 ft 403 kts 113°
2026-05-07 15:37 45.47934 -122.69152 17333 ft 408 kts 113°
2026-05-07 15:37 45.46781 -122.65438 17957 ft 412 kts 114°
2026-05-07 15:38 45.45622 -122.61725 18545 ft 417 kts 114°
2026-05-07 15:38 45.44438 -122.57942 19103 ft 420 kts 114°
2026-05-07 15:38 45.43239 -122.54119 19653 ft 423 kts 114°
2026-05-07 15:38 45.42034 -122.50276 20223 ft 427 kts 114°
2026-05-07 15:39 45.40815 -122.46396 20791 ft 430 kts 114°
2026-05-07 15:39 45.39587 -122.42490 21348 ft 434 kts 114°
2026-05-07 15:39 45.38348 -122.38556 21908 ft 437 kts 114°
2026-05-07 15:39 45.37098 -122.34594 22465 ft 441 kts 114°
2026-05-07 15:40 45.35834 -122.30591 23010 ft 445 kts 114°
2026-05-07 15:40 45.34561 -122.26565 23548 ft 448 kts 114°
2026-05-07 15:40 45.33271 -122.22493 24029 ft 452 kts 114°
2026-05-07 15:40 45.32000 -122.18484 24498 ft 454 kts 114°
2026-05-07 15:41 45.30677 -122.14321 24952 ft 457 kts 114°
2026-05-07 15:41 45.29384 -122.10257 25391 ft 460 kts 114°
2026-05-07 15:41 45.28058 -122.06095 25814 ft 463 kts 114°
2026-05-07 15:41 45.26722 -122.01913 26233 ft 466 kts 114°
2026-05-07 15:42 45.25391 -121.97701 26648 ft 469 kts 111°
2026-05-07 15:42 45.24271 -121.93430 27008 ft 472 kts 109°
2026-05-07 15:42 45.23151 -121.89020 27425 ft 474 kts 109°
2026-05-07 15:42 45.22031 -121.84614 27794 ft 477 kts 109°
2026-05-07 15:43 45.20901 -121.80180 28179 ft 479 kts 109°
2026-05-07 15:43 45.19763 -121.75735 28542 ft 482 kts 109°
2026-05-07 15:43 45.18606 -121.71231 28882 ft 485 kts 109°
2026-05-07 15:43 45.17462 -121.66796 29227 ft 487 kts 109°
2026-05-07 15:44 45.16290 -121.62257 29554 ft 490 kts 109°
2026-05-07 15:44 45.15117 -121.57728 29884 ft 492 kts 109°
2026-05-07 15:44 45.13938 -121.53184 30218 ft 494 kts 109°
2026-05-07 15:44 45.12745 -121.48592 30515 ft 496 kts 109°
2026-05-07 15:45 45.11564 -121.44055 30808 ft 498 kts 109°
2026-05-07 15:45 45.10344 -121.39376 31095 ft 500 kts 109°
2026-05-07 15:45 45.09149 -121.34806 31450 ft 500 kts 109°
2026-05-07 15:45 45.07925 -121.30131 31856 ft 499 kts 109°
2026-05-07 15:46 45.05525 -121.20997 32650 ft 497 kts 109°
2026-05-07 15:46 45.04320 -121.16423 33021 ft 497 kts 109°
2026-05-07 15:46 45.03116 -121.11858 33388 ft 495 kts 109°
2026-05-07 15:47 45.01906 -121.07286 33756 ft 495 kts 109°
2026-05-07 15:47 45.00699 -121.02732 34107 ft 494 kts 109°
2026-05-07 15:47 44.99901 -120.99724 34294 ft 494 kts 109°
2026-05-07 15:47 44.98689 -120.95163 34565 ft 493 kts 109°
2026-05-07 15:48 44.97481 -120.90628 34831 ft 493 kts 109°
2026-05-07 15:48 44.95878 -120.84621 35031 ft 493 kts 109°
2026-05-07 15:48 44.95059 -120.81557 35085 ft 492 kts 109°
2026-05-07 15:49 44.92655 -120.72586 35088 ft 492 kts 109°
2026-05-07 15:49 44.90198 -120.63452 35083 ft 504 kts 109°
2026-05-07 15:50 44.87676 -120.54114 35080 ft 510 kts 109°
2026-05-07 15:50 44.85147 -120.44789 35081 ft 510 kts 109°
2026-05-07 15:51 44.82607 -120.35462 35076 ft 510 kts 109°
2026-05-07 15:51 44.80072 -120.26183 35079 ft 510 kts 110°
2026-05-07 15:52 44.77510 -120.16844 35078 ft 511 kts 110°
2026-05-07 15:52 44.74936 -120.07496 35075 ft 512 kts 110°
2026-05-07 15:53 44.72356 -119.98163 35078 ft 512 kts 110°
2026-05-07 15:53 44.69785 -119.88897 35067 ft 512 kts 110°
2026-05-07 15:54 44.67180 -119.79547 35070 ft 513 kts 110°
2026-05-07 15:54 44.64609 -119.70209 35067 ft 512 kts 106°
2026-05-07 15:55 44.62531 -119.60649 35084 ft 512 kts 105°
2026-05-07 15:55 44.60486 -119.51079 35071 ft 512 kts 105°
2026-05-07 15:56 44.58433 -119.41550 35077 ft 513 kts 105°
2026-05-07 15:56 44.56357 -119.31976 35076 ft 514 kts 105°
2026-05-07 15:57 44.54264 -119.22385 35078 ft 514 kts 105°
2026-05-07 15:57 44.52156 -119.12791 35079 ft 514 kts 105°
2026-05-07 15:58 44.50044 -119.03224 35081 ft 515 kts 105°
2026-05-07 15:58 44.47922 -118.93650 35083 ft 515 kts 105°
2026-05-07 15:59 44.45798 -118.84117 35082 ft 516 kts 105°
2026-05-07 15:59 44.43649 -118.74514 35090 ft 516 kts 105°
2026-05-07 16:00 44.41507 -118.64985 35085 ft 516 kts 105°
2026-05-07 16:00 44.39335 -118.55365 35080 ft 517 kts 105°
2026-05-07 16:01 44.37162 -118.45782 35072 ft 517 kts 105°
2026-05-07 16:01 44.34990 -118.36247 35072 ft 517 kts 105°
2026-05-07 16:02 44.32799 -118.26670 35071 ft 518 kts 105°
2026-05-07 16:02 44.30596 -118.17083 35060 ft 518 kts 105°
2026-05-07 16:03 44.28381 -118.07485 35065 ft 520 kts 105°
2026-05-07 16:03 44.26171 -117.97951 35062 ft 519 kts 105°
2026-05-07 16:04 44.23943 -117.88383 35054 ft 519 kts 105°
2026-05-07 16:04 44.21698 -117.78780 35051 ft 518 kts 105°
2026-05-07 16:05 44.19452 -117.69214 35045 ft 519 kts 105°
2026-05-07 16:05 44.17212 -117.59721 35048 ft 518 kts 105°
2026-05-07 16:06 44.14958 -117.50201 35042 ft 518 kts 105°
2026-05-07 16:06 44.12693 -117.40678 35054 ft 517 kts 105°
2026-05-07 16:07 44.10426 -117.31188 35057 ft 517 kts 105°
2026-05-07 16:07 44.08145 -117.21680 35064 ft 516 kts 105°
2026-05-07 16:08 44.05879 -117.12274 35089 ft 516 kts 105°
2026-05-07 16:08 44.03588 -117.02804 35084 ft 515 kts 105°
2026-05-07 16:09 44.01300 -116.93385 35087 ft 515 kts 105°
2026-05-07 16:09 43.99007 -116.83983 35069 ft 515 kts 105°
2026-05-07 16:10 43.96723 -116.74659 35058 ft 514 kts 105°
2026-05-07 16:10 43.94411 -116.65258 35043 ft 513 kts 105°
2026-05-07 16:11 43.92093 -116.55872 35044 ft 513 kts 105°
2026-05-07 16:11 43.89784 -116.46560 35050 ft 513 kts 105°
2026-05-07 16:12 43.87475 -116.37284 35041 ft 512 kts 105°
2026-05-07 16:12 43.85127 -116.27892 35042 ft 512 kts 105°
2026-05-07 16:13 43.82798 -116.18611 35048 ft 512 kts 106°
2026-05-07 16:13 43.80451 -116.09301 35050 ft 512 kts 106°
2026-05-07 16:14 43.78101 -116.00010 35045 ft 512 kts 106°
2026-05-07 16:14 43.75748 -115.90747 35032 ft 512 kts 106°
2026-05-07 16:15 43.73383 -115.81472 35021 ft 512 kts 106°
2026-05-07 16:15 43.71003 -115.72180 35011 ft 511 kts 106°
2026-05-07 16:16 43.68622 -115.62916 35011 ft 511 kts 106°
2026-05-07 16:16 43.66240 -115.53684 35004 ft 511 kts 106°
2026-05-07 16:17 43.63845 -115.44439 35006 ft 510 kts 106°
2026-05-07 16:17 43.61440 -115.35195 35006 ft 511 kts 106°
2026-05-07 16:18 43.59046 -115.26025 35009 ft 511 kts 106°
2026-05-07 16:18 43.56629 -115.16803 35002 ft 510 kts 106°
2026-05-07 16:19 43.54214 -115.07624 35002 ft 511 kts 106°
2026-05-07 16:19 43.51781 -114.98411 35006 ft 510 kts 106°
2026-05-07 16:20 43.49344 -114.89223 34993 ft 511 kts 106°
2026-05-07 16:20 43.46909 -114.80078 34992 ft 510 kts 106°
2026-05-07 16:21 43.44458 -114.70903 35012 ft 511 kts 106°
2026-05-07 16:21 43.41998 -114.61729 35037 ft 511 kts 106°
2026-05-07 16:22 43.39527 -114.52549 35053 ft 511 kts 106°
2026-05-07 16:22 43.37062 -114.43424 35069 ft 511 kts 106°
2026-05-07 16:23 43.34578 -114.34270 35076 ft 512 kts 106°
2026-05-07 16:23 43.32102 -114.25177 35065 ft 511 kts 106°
2026-05-07 16:24 43.29605 -114.16041 35036 ft 511 kts 106°
2026-05-07 16:24 43.27105 -114.06927 34999 ft 510 kts 105°
2026-05-07 16:25 43.24591 -113.97794 34961 ft 511 kts 105°
2026-05-07 16:25 43.22069 -113.88670 34960 ft 511 kts 105°
2026-05-07 16:26 43.19559 -113.79621 34948 ft 512 kts 105°
2026-05-07 16:26 43.17020 -113.70499 34956 ft 511 kts 105°
2026-05-07 16:27 43.14475 -113.61388 34951 ft 512 kts 105°
2026-05-07 16:27 43.11937 -113.52339 34953 ft 511 kts 105°
2026-05-07 16:28 43.09381 -113.43258 34951 ft 512 kts 105°
2026-05-07 16:28 43.06811 -113.34159 34950 ft 511 kts 105°
2026-05-07 16:29 43.04252 -113.25133 34952 ft 511 kts 105°
2026-05-07 16:29 43.01661 -113.16027 34950 ft 510 kts 105°
2026-05-07 16:30 42.99086 -113.07012 34950 ft 510 kts 105°
2026-05-07 16:30 42.96518 -112.98049 34984 ft 509 kts 105°
2026-05-07 16:31 42.93935 -112.89061 35015 ft 508 kts 105°
2026-05-07 16:31 42.91351 -112.80084 35044 ft 507 kts 105°
2026-05-07 16:32 42.88769 -112.71142 35074 ft 507 kts 105°
2026-05-07 16:32 42.86059 -112.62247 35072 ft 509 kts 109°
2026-05-07 16:33 42.83210 -112.53489 35071 ft 507 kts 107°
2026-05-07 16:33 42.80411 -112.44682 35051 ft 506 kts 107°
2026-05-07 16:34 42.77584 -112.35888 35021 ft 506 kts 108°
2026-05-07 16:34 42.74749 -112.27130 35016 ft 505 kts 108°
2026-05-07 16:35 42.71898 -112.18367 35010 ft 506 kts 108°
2026-05-07 16:35 42.69070 -112.09697 35005 ft 504 kts 108°
2026-05-07 16:36 42.66229 -112.01022 35015 ft 504 kts 108°
2026-05-07 16:36 42.63366 -111.92306 35020 ft 504 kts 108°
2026-05-07 16:37 42.60502 -111.83614 35027 ft 505 kts 108°
2026-05-07 16:37 42.58111 -111.76380 35035 ft 504 kts 108°
2026-05-07 16:38 42.55229 -111.67684 35036 ft 504 kts 108°
2026-05-07 16:38 42.52349 -111.59024 35024 ft 503 kts 108°
2026-05-07 16:39 42.49468 -111.50388 35035 ft 503 kts 108°
2026-05-07 16:39 42.46571 -111.41736 35037 ft 503 kts 108°
2026-05-07 16:40 42.43681 -111.33123 35029 ft 503 kts 108°
2026-05-07 16:40 42.40796 -111.24552 35033 ft 502 kts 108°
2026-05-07 16:41 42.37893 -111.15962 35026 ft 502 kts 108°
2026-05-07 16:41 42.34986 -111.07386 35031 ft 501 kts 108°
2026-05-07 16:42 42.32066 -110.98793 35031 ft 502 kts 108°
2026-05-07 16:42 42.29161 -110.90278 35027 ft 501 kts 108°
2026-05-07 16:43 42.26223 -110.81689 35025 ft 501 kts 108°
2026-05-07 16:43 42.23308 -110.73191 35023 ft 500 kts 107°
2026-05-07 16:44 42.20381 -110.64686 35020 ft 500 kts 107°
2026-05-07 16:44 42.17444 -110.56181 35026 ft 499 kts 107°
2026-05-07 16:45 42.14502 -110.47681 35044 ft 500 kts 107°
2026-05-07 16:45 42.11572 -110.39244 35045 ft 499 kts 107°
2026-05-07 16:46 42.08601 -110.30717 35041 ft 499 kts 107°
2026-05-07 16:46 42.05684 -110.22370 35027 ft 498 kts 107°
2026-05-07 16:47 42.02736 -110.13959 35009 ft 498 kts 107°
2026-05-07 16:47 41.99759 -110.05493 35015 ft 497 kts 107°
2026-05-07 16:48 41.96798 -109.97095 35018 ft 497 kts 107°
2026-05-07 16:48 41.93837 -109.88723 35025 ft 496 kts 107°
2026-05-07 16:49 41.90890 -109.80417 35031 ft 496 kts 107°
2026-05-07 16:49 41.87917 -109.72060 35028 ft 495 kts 107°
2026-05-07 16:50 41.84942 -109.63723 35038 ft 494 kts 107°
2026-05-07 16:50 41.81970 -109.55420 35044 ft 493 kts 107°
2026-05-07 16:51 41.78997 -109.47137 35049 ft 493 kts 107°
2026-05-07 16:51 41.76024 -109.38879 35086 ft 492 kts 107°
2026-05-07 16:52 41.73067 -109.30689 35120 ft 492 kts 107°
2026-05-07 16:52 41.70081 -109.22447 35152 ft 491 kts 107°
2026-05-07 16:53 41.67102 -109.14240 35180 ft 491 kts 107°
2026-05-07 16:53 41.64112 -109.06031 35185 ft 490 kts 107°
2026-05-07 16:54 41.61123 -108.97847 35184 ft 490 kts 107°
2026-05-07 16:54 41.58134 -108.89684 35169 ft 489 kts 107°
2026-05-07 16:55 41.55134 -108.81516 35142 ft 489 kts 107°
2026-05-07 16:55 41.52148 -108.73408 35111 ft 489 kts 107°
2026-05-07 16:56 41.49145 -108.65280 35070 ft 488 kts 107°
2026-05-07 16:56 41.44867 -108.53386 35068 ft 461 kts 105°
2026-05-07 16:57 41.42084 -108.45863 35070 ft 446 kts 106°
2026-05-07 16:57 41.39363 -108.38614 35077 ft 432 kts 106°
2026-05-07 16:58 41.36987 -108.31482 35087 ft 406 kts 97°
2026-05-07 16:58 41.35246 -108.24400 35094 ft 408 kts 99°
2026-05-07 16:59 41.33386 -108.17116 35102 ft 424 kts 99°
2026-05-07 16:59 41.31512 -108.09534 35108 ft 439 kts 99°
2026-05-07 17:00 41.29593 -108.01677 35115 ft 454 kts 99°
2026-05-07 17:00 41.27598 -107.93556 35118 ft 469 kts 100°
2026-05-07 17:01 41.25540 -107.85227 35131 ft 479 kts 100°
2026-05-07 17:01 41.23450 -107.76827 35156 ft 477 kts 100°
2026-05-07 17:02 41.21365 -107.68450 35176 ft 479 kts 100°
2026-05-07 17:02 41.19291 -107.60137 35192 ft 478 kts 100°
2026-05-07 17:03 41.17196 -107.51777 35198 ft 479 kts 101°
2026-05-07 17:03 41.15085 -107.43383 35197 ft 480 kts 101°
2026-05-07 17:04 41.12958 -107.34955 35186 ft 481 kts 101°
2026-05-07 17:04 41.10842 -107.26602 35186 ft 482 kts 101°
2026-05-07 17:05 41.08696 -107.18160 35174 ft 483 kts 101°
2026-05-07 17:05 41.06536 -107.09692 35163 ft 484 kts 102°
2026-05-07 17:06 41.04368 -107.01226 35161 ft 485 kts 102°
2026-05-07 17:06 41.02191 -106.92752 35162 ft 486 kts 102°
2026-05-07 17:07 41.00129 -106.84761 35163 ft 483 kts 103°
2026-05-07 17:07 40.99047 -106.80597 35164 ft 471 kts 103°
2026-05-07 17:07 40.97990 -106.76531 35166 ft 466 kts 103°
2026-05-07 17:08 40.95871 -106.68339 35164 ft 471 kts 103°
2026-05-07 17:08 40.93738 -106.60149 35166 ft 472 kts 103°
2026-05-07 17:09 40.91606 -106.51999 35162 ft 472 kts 103°
2026-05-07 17:09 40.89451 -106.43783 35160 ft 473 kts 104°
2026-05-07 17:10 40.88368 -106.39671 35001 ft 474 kts 104°
2026-05-07 17:10 40.87278 -106.35538 34509 ft 475 kts 104°
2026-05-07 17:10 40.86190 -106.31418 33709 ft 478 kts 103°
2026-05-07 17:10 40.85088 -106.27245 32714 ft 482 kts 103°
2026-05-07 17:11 40.83816 -106.23111 31781 ft 491 kts 110°
2026-05-07 17:11 40.82345 -106.19040 31252 ft 484 kts 109°
2026-05-07 17:11 40.80946 -106.15107 30749 ft 477 kts 109°
2026-05-07 17:11 40.79554 -106.11174 30312 ft 469 kts 109°
2026-05-07 17:12 40.78178 -106.07286 29736 ft 464 kts 109°
2026-05-07 17:12 40.76827 -106.03472 29123 ft 459 kts 110°
2026-05-07 17:12 40.75473 -105.99653 28484 ft 455 kts 110°
2026-05-07 17:12 40.74140 -105.95910 27876 ft 451 kts 111°
2026-05-07 17:13 40.72805 -105.92169 27316 ft 446 kts 111°
2026-05-07 17:13 40.71489 -105.88487 26788 ft 441 kts 111°
2026-05-07 17:13 40.70187 -105.84852 26290 ft 436 kts 112°
2026-05-07 17:13 40.68901 -105.81262 25769 ft 431 kts 112°
2026-05-07 17:14 40.67621 -105.77699 25268 ft 426 kts 112°
2026-05-07 17:14 40.66375 -105.74235 24781 ft 422 kts 113°
2026-05-07 17:14 40.65121 -105.70751 24285 ft 420 kts 114°
2026-05-07 17:14 40.63874 -105.67292 23846 ft 417 kts 114°
2026-05-07 17:15 40.62631 -105.63849 23292 ft 413 kts 114°
2026-05-07 17:15 40.61401 -105.60451 22779 ft 409 kts 115°
2026-05-07 17:15 40.60181 -105.57081 22305 ft 409 kts 115°
2026-05-07 17:15 40.58957 -105.53704 21822 ft 408 kts 115°
2026-05-07 17:16 40.57738 -105.50349 21344 ft 404 kts 115°
2026-05-07 17:16 40.56545 -105.47067 20987 ft 393 kts 116°
2026-05-07 17:16 40.55373 -105.43847 20520 ft 387 kts 116°
2026-05-07 17:16 40.54218 -105.40675 20028 ft 384 kts 116°
2026-05-07 17:17 40.53065 -105.37516 19553 ft 381 kts 116°
2026-05-07 17:17 40.51918 -105.34377 19074 ft 378 kts 116°
2026-05-07 17:17 40.50785 -105.31279 18639 ft 375 kts 116°
2026-05-07 17:17 40.49653 -105.28189 18188 ft 374 kts 116°
2026-05-07 17:18 40.48525 -105.25118 17744 ft 371 kts 116°
2026-05-07 17:18 40.47409 -105.22081 17327 ft 366 kts 116°
2026-05-07 17:18 40.46327 -105.19137 17133 ft 347 kts 116°
2026-05-07 17:18 40.45468 -105.16229 16813 ft 339 kts 107°
2026-05-07 17:19 40.44783 -105.13276 16405 ft 336 kts 107°
2026-05-07 17:19 40.44099 -105.10369 16011 ft 333 kts 107°
2026-05-07 17:19 40.43417 -105.07496 15623 ft 330 kts 107°
2026-05-07 17:19 40.42733 -105.04623 15229 ft 328 kts 107°
2026-05-07 17:20 40.42062 -105.01820 14855 ft 325 kts 107°
2026-05-07 17:20 40.41382 -104.98993 14468 ft 323 kts 106°
2026-05-07 17:20 40.40711 -104.96206 14239 ft 316 kts 106°
2026-05-07 17:20 40.40054 -104.93477 14123 ft 302 kts 106°
2026-05-07 17:21 40.39435 -104.90923 13795 ft 289 kts 105°
2026-05-07 17:21 40.38835 -104.88431 13696 ft 290 kts 105°
2026-05-07 17:21 40.38231 -104.85895 13562 ft 292 kts 105°
2026-05-07 17:21 40.37664 -104.83507 13319 ft 286 kts 105°
2026-05-07 17:22 40.37072 -104.81019 13003 ft 282 kts 105°
2026-05-07 17:22 40.36483 -104.78548 12995 ft 286 kts 105°
2026-05-07 17:22 40.35863 -104.76074 12990 ft 285 kts 113°
2026-05-07 17:22 40.34735 -104.73945 12971 ft 286 kts 139°
2026-05-07 17:23 40.33200 -104.72400 12850 ft 282 kts 146°
2026-05-07 17:23 40.31626 -104.70887 12570 ft 281 kts 146°
2026-05-07 17:23 40.30052 -104.69364 12264 ft 280 kts 147°
2026-05-07 17:23 40.28323 -104.68323 11954 ft 271 kts 174°
2026-05-07 17:24 40.26460 -104.68172 11670 ft 265 kts 187°
2026-05-07 17:24 40.24650 -104.68264 11760 ft 264 kts 186°
2026-05-07 17:24 40.22780 -104.68297 11738 ft 268 kts 185°
2026-05-07 17:24 40.21552 -104.68309 11643 ft 267 kts 186°
2026-05-07 17:25 40.19697 -104.68330 11428 ft 265 kts 186°
2026-05-07 17:25 40.17856 -104.68351 11135 ft 263 kts 185°
2026-05-07 17:25 40.16037 -104.68373 10781 ft 261 kts 185°
2026-05-07 17:25 40.14231 -104.68394 10430 ft 259 kts 185°
2026-05-07 17:26 40.12421 -104.68417 9902 ft 265 kts 185°
2026-05-07 17:26 40.10558 -104.68437 9470 ft 264 kts 185°
2026-05-07 17:26 40.08748 -104.68458 9087 ft 262 kts 185°
2026-05-07 17:26 40.06917 -104.68479 8717 ft 256 kts 185°
2026-05-07 17:27 40.05213 -104.68498 8379 ft 239 kts 185°
2026-05-07 17:27 40.03599 -104.68516 8085 ft 223 kts 185°
2026-05-07 17:27 40.02122 -104.68533 7805 ft 204 kts 185°
2026-05-07 17:27 40.00752 -104.68549 7539 ft 188 kts 185°
2026-05-07 17:28 39.99509 -104.68563 7331 ft 170 kts 185°
2026-05-07 17:28 39.98379 -104.68576 7108 ft 154 kts 186°
2026-05-07 17:28 39.97343 -104.68589 6931 ft 148 kts 187°
2026-05-07 17:28 39.96316 -104.68604 6746 ft 148 kts 186°
2026-05-07 17:29 39.95293 -104.68615 6560 ft 146 kts 187°
2026-05-07 17:29 39.94323 -104.68627 6381 ft 145 kts 186°
2026-05-07 17:29 39.93367 -104.68639 6164 ft 145 kts 185°
2026-05-07 17:29 39.92366 -104.68649 5959 ft 143 kts 185°
2026-05-07 17:30 39.91380 -104.68661 5749 ft 142 kts 184°
2026-05-07 17:30 39.90399 -104.68673 5547 ft 140 kts 184°
2026-05-07 17:30 39.89423 -104.68682 5380 ft 139 kts 184°
2026-05-07 17:30 39.88557 -104.68695 5362 ft 100 kts 181°
2026-05-07 17:31 39.88047 -104.68701 5361 ft 57 kts 179°
2026-05-07 17:31 39.87690 -104.68706 5359 ft 47 kts 184°
2026-05-07 17:31 39.87425 -104.68683 5358 ft 34 kts 165°
2026-05-07 17:31 39.87266 -104.68602 5356 ft 23 kts 152°
2026-05-07 17:32 39.87130 -104.68508 5357 ft 22 kts 157°
2026-05-07 17:32 39.86980 -104.68498 5360 ft 21 kts 180°
2026-05-07 17:32 39.86830 -104.68501 5362 ft 22 kts 181°
2026-05-07 17:32 39.86678 -104.68502 5362 ft 22 kts 180°
2026-05-07 17:33 39.86528 -104.68504 5362 ft 21 kts 179°
2026-05-07 17:33 39.86384 -104.68506 5363 ft 21 kts 180°
2026-05-07 17:33 39.86239 -104.68509 5364 ft 21 kts 180°
2026-05-07 17:33 39.86097 -104.68510 5368 ft 19 kts 179°
2026-05-07 17:34 39.85964 -104.68511 5366 ft 19 kts 181°
2026-05-07 17:34 39.85830 -104.68517 5368 ft 17 kts 179°
2026-05-07 17:34 39.85734 -104.68512 5369 ft 12 kts 178°
2026-05-07 17:34 39.85687 -104.68446 5370 ft 10 kts 96°
2026-05-07 17:35 39.85686 -104.68358 5377 ft 10 kts 88°
2026-05-07 17:35 39.85686 -104.68258 5376 ft 13 kts 90°
2026-05-07 17:35 39.85671 -104.68135 5375 ft 15 kts 98°
2026-05-07 17:35 39.85669 -104.67984 5379 ft 18 kts 90°
2026-05-07 17:36 39.85667 -104.67842 5379 ft 15 kts 89°
2026-05-07 17:36 39.85668 -104.67696 5379 ft 17 kts 88°
2026-05-07 17:36 39.85665 -104.67551 5378 ft 17 kts 92°
2026-05-07 17:36 39.85665 -104.67430 5379 ft 11 kts 89°
2026-05-07 17:37 39.85665 -104.67335 5378 ft 11 kts 72°
2026-05-07 17:37 39.85733 -104.67287 5377 ft 12 kts
2026-05-07 17:37 39.85782 -104.67283 5375 ft 3 kts
2026-05-07 17:37 39.85807 -104.67283 5374 ft 2 kts 359°